CW2751 Weather Reports


Display with metric or nautical units.
time (UTC)temp
F
wind
direction
speed
MPH
gust
MPH
rain 1hr
in
rain 24hr
in
rain mn
in
humidity
%
barometer
mb
20260503203029 79 319 5.0 0.0 0.00 0.00 0.00 15 1001.8
20260503201520 79 4 5.0 0.0 0.00 0.00 0.00 15 1001.9
20260503200039 78 336 6.0 0.0 0.00 0.00 0.00 14 1002.0
20260503194549 78 323 4.0 0.0 0.00 0.00 0.00 15 1002.0
20260503193054 78 8 4.0 0.0 0.00 0.00 0.00 16 1002.0
20260503191515 77 20 3.0 0.0 0.00 0.00 0.00 18 1002.3
20260503190021 76 28 2.0 0.0 0.00 0.00 0.00 17 1002.7
20260503184522 76 299 6.0 0.0 0.00 0.00 0.00 18 1003.1
20260503183036 76 319 4.0 0.0 0.00 0.00 0.00 18 1003.4
20260503181554 75 346 5.0 0.0 0.00 0.00 0.00 18 1004.0
20260503180040 74 288 6.0 0.0 0.00 0.00 0.00 18 1003.7
20260503174543 73 11 6.0 0.0 0.00 0.00 0.00 19 1004.2
20260503173056 73 351 5.0 0.0 0.00 0.00 0.00 20 1004.4
20260503171558 73 18 5.0 0.0 0.00 0.00 0.00 22 1004.5
20260503171502 73 319 6.0 0.0 0.00 0.00 0.00 22 1004.5
20260503120109 51 277 9.0 0.0 0.00 0.00 0.00 39 1005.1
20260503081539 54 198 10.0 0.0 0.00 0.00 0.00 35 1006.3
20260503071531 54 233 9.0 0.0 0.00 0.00 0.00 34 1007.3
20260503060108 56 220 9.0 0.0 0.00 0.00 0.00 28 1008.0
20260503054547 56 212 9.0 0.0 0.00 0.00 0.00 30 1007.9
20260503053010 56 231 9.0 0.0 0.00 0.00 0.00 30 1007.9
20260503051536 57 209 9.0 0.0 0.00 0.00 0.00 29 1007.8
20260503050038 57 248 9.0 0.0 0.00 0.00 0.00 28 1008.1
20260503044628 58 230 8.0 0.0 0.00 0.00 0.00 28 1008.1
20260503044502 58 236 8.0 0.0 0.00 0.00 0.00 28 1008.1
20260503043059 59 289 8.0 0.0 0.00 0.00 0.00 28 1008.2
20260503041524 59 223 8.0 0.0 0.00 0.00 0.00 28 1008.1
20260503040037 60 254 7.0 0.0 0.00 0.00 0.00 27 1008.8
20260503034602 58 199 6.0 0.0 0.00 0.00 0.00 28 1009.2
20260503034501 58 203 5.0 0.0 0.00 0.00 0.00 29 1009.2
20260503033011 59 219 4.0 0.0 0.00 0.00 0.00 29 1008.9
20260503031516 60 192 4.0 0.0 0.00 0.00 0.00 28 1009.0
20260503030035 61 190 5.0 0.0 0.00 0.00 0.00 28 1009.2
20260503024559 61 199 3.0 0.0 0.00 0.00 0.00 27 1009.2
20260503023102 63 202 2.0 0.0 0.00 0.00 0.00 27 1008.8
20260503023002 63 198 2.0 0.0 0.00 0.00 0.00 26 1008.8
20260503021529 64 209 2.0 0.0 0.00 0.00 0.00 26 1008.5
20260503020106 66 207 3.0 0.0 0.00 0.00 0.00 23 1008.7
20260503014524 69 188 2.0 0.0 0.00 0.00 0.00 21 1008.2
20260503013020 71 226 2.0 0.0 0.00 0.00 0.00 18 1007.9
20260503011553 74 224 1.0 0.0 0.00 0.00 0.00 16 1007.7
20260503010053 73 233 2.0 0.0 0.00 0.00 0.00 16 1008.7
20260503004604 74 255 2.0 0.0 0.00 0.00 0.00 15 1008.7
20260503003016 74 271 4.0 0.0 0.00 0.00 0.00 15 1008.9
20260503001557 74 274 4.0 0.0 0.00 0.00 0.00 15 1009.1
20260503000035 74 298 5.0 0.0 0.00 0.00 0.00 14 1009.7
20260502234615 74 238 5.0 0.0 0.00 0.00 0.00 16 1009.8
20260502233003 74 260 5.0 0.0 0.00 0.00 0.00 15 1009.9
20260502231531 75 285 3.0 0.0 0.00 0.00 0.00 16 1009.7
20260502230032 75 327 3.0 0.0 0.00 0.00 0.00 15 1009.7
20260502224557 74 261 4.0 0.0 0.00 0.00 0.00 17 1010.2
20260502223012 74 301 7.0 0.0 0.00 0.00 0.00 16 1010.3
20260502221507 74 241 4.0 0.0 0.00 0.00 0.00 18 1010.4
20260502220009 73 258 4.0 0.0 0.00 0.00 0.00 19 1010.7
20260502214517 73 202 4.0 0.0 0.00 0.00 0.00 19 1010.9
20260502213023 72 243 7.0 0.0 0.00 0.00 0.00 19 1011.6
20260502211550 72 237 4.0 0.0 0.00 0.00 0.00 20 1011.5
20260502210051 72 102 5.0 0.0 0.00 0.00 0.00 21 1011.9
20260502204553 71 230 5.0 0.0 0.00 0.00 0.00 20 1012.3